DW6196 Weather Reports


time (UTC)temp
F
wind
direction
speed
knots
gust
knots
rain 1hr
in
rain 24hr
in
rain mn
in
humidity
%
barometer
mb
20210723144609 85 0.0 0.0 0.00 0.00 0.00 75 1017.6
20210723143023 85 0.0 0.0 0.00 0.00 0.00 75 1017.6
20210723141542 85 0.0 0.0 0.00 0.00 0.00 75 1017.6
20210723140013 85 0.0 0.0 0.00 0.00 0.00 75 1017.7
20210723134542 85 0.0 0.0 0.00 0.00 0.00 75 1017.8
20210723133104 85 287 0.0 1.7 0.00 0.00 0.00 75 1017.6
20210723131514 78 300 1.7 1.7 0.00 0.00 0.00 75 1017.4
20210723130148 78 0.0 0.0 0.00 0.00 0.00 75 1017.3
20210723124545 78 0.0 0.0 0.00 0.00 0.00 75 1017.2
20210723123056 78 338 0.0 0.0 0.00 0.00 0.00 75 1017.2
20210723121505 78 338 0.0 0.0 0.00 0.00 0.00 75 1017.2
20210723120115 78 338 0.0 0.0 0.00 0.00 0.00 75 1017.2
20210723114603 78 241 0.0 0.0 0.00 0.00 0.00 75 1017.0
20210723113025 78 241 0.0 0.0 0.00 0.00 0.00 75 1016.9
20210723111645 78 241 0.0 0.0 0.00 0.00 0.00 75 1016.8
20210723110105 78 0.0 0.0 0.00 0.00 0.00 75 1016.7
20210723104633 78 241 0.0 0.0 0.00 0.00 0.00 75 1016.6
20210723103012 78 241 0.0 0.0 0.00 0.00 0.00 75 1016.5
20210723101642 78 0.0 0.0 0.00 0.00 0.00 75 1016.4
20210723100110 78 241 0.0 0.0 0.00 0.00 0.00 75 1016.3
20210723093224 78 0.0 0.0 0.00 0.00 0.00 77 1016.4
20210723091638 78 241 0.0 0.0 0.00 0.00 0.00 77 1016.5
20210723090018 78 241 0.0 0.0 0.00 0.00 0.00 77 1016.5
20210723084709 79 0.0 0.0 0.00 0.00 0.00 77 1016.4
20210723083045 79 241 0.0 0.0 0.00 0.00 0.00 77 1016.3
20210723080107 79 241 0.0 0.0 0.00 0.00 0.00 85 1016.3
20210723074529 79 241 0.0 0.0 0.00 0.00 0.00 85 1016.4
20210723071657 80 0.0 0.0 0.00 0.00 0.00 85 1016.4
20210723070019 80 241 0.0 0.0 0.00 0.00 0.00 85 1016.6
20210723060055 80 0.0 0.0 0.00 0.00 0.00 85 1017.1
20210723054634 80 0.0 0.0 0.00 0.00 0.00 85 1017.1
20210723053030 80 0.0 0.0 0.00 0.00 0.00 85 1017.2
20210723050047 80 234 0.0 0.0 0.00 0.00 0.00 85 1017.2
20210723044547 80 204 0.0 0.0 0.00 0.00 0.00 85 1017.2
20210723041654 81 204 0.0 0.0 0.00 0.00 0.00 85 1017.2
20210723040106 81 204 0.0 1.7 0.00 0.00 0.00 85 1017.2
20210723034541 81 204 0.0 1.7 0.00 0.00 0.00 85 1017.4
20210723033153 81 204 0.0 1.7 0.00 0.00 0.00 85 1017.7
20210723031550 81 204 0.0 0.9 0.00 0.00 0.00 85 1017.6
20210723030042 81 204 0.0 0.9 0.00 0.00 0.00 85 1017.4
20210723023101 82 204 0.0 0.0 0.00 0.00 0.00 84 1017.2
20210723021513 82 204 0.0 0.9 0.00 0.00 0.00 84 1017.0
20210723020153 82 174 0.0 5.2 0.00 0.00 0.00 84 1016.9
20210723014554 83 207 0.0 0.9 0.00 0.00 0.00 83 1016.8
20210723011610 83 210 0.0 1.7 0.00 0.00 0.00 81 1016.6
20210723010047 84 219 0.0 0.0 0.00 0.00 0.00 80 1016.5
20210723003045 85 92 0.0 2.6 0.00 0.00 0.00 77 1016.2
20210723000101 86 298 0.0 4.3 0.00 0.00 0.00 74 1016.0
20210722233046 87 166 0.9 5.2 0.00 0.00 0.00 72 1016.1
20210722230102 88 250 0.0 4.3 0.00 0.00 0.00 69 1015.9
20210722224503 90 232 0.9 4.3 0.00 0.00 0.00 68 1015.8
20210722223243 90 62 0.0 6.1 0.00 0.00 0.00 68 1016.0
20210722221510 91 90 0.0 2.6 0.00 0.00 0.00 67 1016.1
20210722220056 91 206 0.9 4.3 0.00 0.00 0.00 65 1016.1
20210722214517 92 119 0.0 4.3 0.00 0.00 0.00 64 1016.0
20210722213203 92 217 0.0 5.2 0.00 0.00 0.00 65 1016.0
20210722211621 92 129 0.0 2.6 0.00 0.00 0.00 64 1016.2
20210722210137 93 234 0.0 3.5 0.00 0.00 0.00 65 1016.3
20210722204539 94 196 0.9 7.0 0.00 0.00 0.00 64 1016.3
20210722203002 94 194 0.9 5.2 0.00 0.00 0.00 63 1016.5
20210722201635 94 195 0.9 3.5 0.00 0.00 0.00 62 1016.5
20210722200021 94 93 0.0 8.7 0.00 0.00 0.00 63 1016.6
20210722194717 94 287 0.0 3.5 0.00 0.00 0.00 63 1016.7
20210722193022 94 239 0.0 4.3 0.00 0.00 0.00 63 1016.7
20210722191711 93 94 0.0 4.3 0.00 0.00 0.00 66 1016.9
20210722190025 93 267 0.0 2.6 0.00 0.00 0.00 66 1017.1
20210722184634 94 80 0.0 3.5 0.00 0.00 0.00 64 1017.3
20210722183131 94 329 0.0 4.3 0.00 0.00 0.00 59 1017.3
20210722181552 93 0.0 0.0 0.00 0.00 0.00 85 1017.5
20210722180015 93 285 0.0 0.0 0.00 0.00 0.00 85 1017.6
20210722173152 80 0.0 0.0 0.00 0.00 0.00 85 1017.9
20210722171550 80 0.0 0.0 0.00 0.00 0.00 85 1018.1
20210722164651 80 0.0 0.0 0.00 0.00 0.00 85 1018.4
20210722163218 80 0.0 0.0 0.00 0.00 0.00 85 1018.4
20210722161556 80 0.0 0.0 0.00 0.00 0.00 85 1018.4
20210722160017 80 0.0 0.0 0.00 0.00 0.00 85 1018.4
20210722153221 80 0.0 0.0 0.00 0.00 0.00 85 1018.5
20210722151618 80 0.0 0.0 0.00 0.00 0.00 85 1018.5
20210722150012 80 0.0 0.0 0.00 0.00 0.00 85 1018.4